TimeMST,TemperatureF,Dew PointF,Humidity,Sea Level PressureIn,VisibilityMPH,Wind Direction,Wind SpeedMPH,Gust SpeedMPH,PrecipitationIn,Events,Conditions,WindDirDegrees,DateUTC
12:15 AM,66.2,46.4,49,30.13,10.0,South,9.2,-,N/A,,Clear,190,2013-07-04 07:15:00
12:35 AM,66.2,46.4,49,30.13,10.0,South,10.4,-,N/A,,Clear,180,2013-07-04 07:35:00
12:55 AM,66.2,46.4,49,30.12,10.0,South,10.4,-,N/A,,Clear,190,2013-07-04 07:55:00
1:15 AM,66.2,46.4,49,30.12,10.0,South,12.7,-,N/A,,Clear,180,2013-07-04 08:15:00
1:35 AM,64.4,46.4,52,30.12,10.0,South,11.5,-,N/A,,Clear,180,2013-07-04 08:35:00
1:55 AM,66.2,46.4,49,30.12,10.0,South,15.0,-,N/A,,Clear,180,2013-07-04 08:55:00
2:15 AM,64.4,46.4,52,30.12,10.0,South,12.7,-,N/A,,Clear,180,2013-07-04 09:15:00
2:35 AM,64.4,46.4,52,30.12,10.0,South,12.7,-,N/A,,Clear,190,2013-07-04 09:35:00
2:55 AM,64.4,46.4,52,30.12,10.0,South,12.7,-,N/A,,Clear,180,2013-07-04 09:55:00
3:15 AM,64.4,46.4,52,30.12,10.0,South,15.0,-,N/A,,Clear,190,2013-07-04 10:15:00
3:35 AM,64.4,46.4,52,30.13,10.0,South,16.1,-,N/A,,Clear,180,2013-07-04 10:35:00
3:55 AM,64.4,46.4,52,30.13,10.0,South,12.7,-,N/A,,Clear,190,2013-07-04 10:55:00
4:15 AM,64.4,46.4,52,30.13,10.0,South,19.6,23.0,N/A,,Clear,180,2013-07-04 11:15:00
4:35 AM,64.4,46.4,52,30.13,10.0,South,16.1,-,N/A,,Clear,190,2013-07-04 11:35:00
4:55 AM,64.4,46.4,52,30.13,10.0,South,15.0,-,N/A,,Clear,180,2013-07-04 11:55:00
5:15 AM,62.6,46.4,55,30.13,10.0,South,16.1,19.6,N/A,,Clear,190,2013-07-04 12:15:00
5:35 AM,62.6,46.4,55,30.13,10.0,South,13.8,-,N/A,,Clear,190,2013-07-04 12:35:00
5:55 AM,64.4,46.4,52,30.13,10.0,South,16.1,-,N/A,,Clear,190,2013-07-04 12:55:00
6:15 AM,64.4,46.4,52,30.14,10.0,SSW,15.0,-,N/A,,Clear,200,2013-07-04 13:15:00
6:35 AM,66.2,46.4,49,30.14,10.0,South,13.8,-,N/A,,Clear,190,2013-07-04 13:35:00
6:55 AM,66.2,46.4,49,30.15,10.0,SSW,13.8,-,N/A,,Clear,200,2013-07-04 13:55:00
7:15 AM,66.2,48.2,52,30.15,10.0,SSW,16.1,21.9,N/A,,Clear,200,2013-07-04 14:15:00
7:35 AM,69.8,48.2,46,30.16,10.0,SSW,18.4,23.0,N/A,,Clear,200,2013-07-04 14:35:00
7:55 AM,71.6,48.2,43,30.16,10.0,South,20.7,27.6,N/A,,Clear,190,2013-07-04 14:55:00
8:15 AM,71.6,48.2,43,30.16,10.0,South,19.6,24.2,N/A,,Clear,190,2013-07-04 15:15:00
8:35 AM,73.4,48.2,41,30.16,10.0,South,20.7,26.5,N/A,,Clear,190,2013-07-04 15:35:00
8:55 AM,75.2,48.2,38,30.16,10.0,SSW,20.7,25.3,N/A,,Clear,210,2013-07-04 15:55:00
9:15 AM,73.4,48.2,41,30.16,10.0,SSW,17.3,25.3,N/A,,Clear,200,2013-07-04 16:15:00
9:35 AM,75.2,48.2,38,30.16,10.0,SSW,16.1,24.2,N/A,,Clear,200,2013-07-04 16:35:00
9:55 AM,77.0,48.2,36,30.16,10.0,SSW,16.1,24.2,N/A,,Clear,200,2013-07-04 16:55:00
10:15 AM,77.0,48.2,36,30.16,10.0,SSW,16.1,-,N/A,,Clear,200,2013-07-04 17:15:00
10:35 AM,77.0,48.2,36,30.16,10.0,SW,13.8,21.9,N/A,,Clear,230,2013-07-04 17:35:00
10:55 AM,77.0,48.2,36,30.15,10.0,SSW,16.1,-,N/A,,Clear,200,2013-07-04 17:55:00
11:15 AM,80.6,48.2,32,30.15,10.0,WSW,15.0,23.0,N/A,,Clear,240,2013-07-04 18:15:00
11:35 AM,80.6,48.2,32,30.15,10.0,SSW,12.7,21.9,N/A,,Clear,210,2013-07-04 18:35:00
11:55 AM,82.4,46.4,28,30.14,10.0,WSW,11.5,17.3,N/A,,Clear,250,2013-07-04 18:55:00
12:15 PM,84.2,46.4,27,30.13,10.0,SW,10.4,19.6,N/A,,Clear,230,2013-07-04 19:15:00
12:35 PM,84.2,46.4,27,30.13,10.0,WSW,12.7,20.7,N/A,,Partly Cloudy,240,2013-07-04 19:35:00
12:55 PM,86.0,46.4,25,30.12,10.0,SSW,12.7,20.7,N/A,,Clear,200,2013-07-04 19:55:00
1:15 PM,86.0,44.6,23,30.11,10.0,SW,12.7,-,N/A,,Clear,230,2013-07-04 20:15:00
1:35 PM,87.8,44.6,22,30.09,10.0,SSW,12.7,16.1,N/A,Thunderstorm,Clear,200,2013-07-04 20:35:00
1:55 PM,86.0,44.6,23,30.08,10.0,WSW,18.4,23.0,N/A,Thunderstorm,Partly Cloudy,240,2013-07-04 20:55:00
2:15 PM,80.6,48.2,32,30.08,8.0,SSW,11.5,23.0,N/A,Rain-Thunderstorm,Light Thunderstorms and Rain,210,2013-07-04 21:15:00
2:35 PM,80.6,48.2,32,30.09,10.0,West,19.6,31.1,N/A,Thunderstorm,Scattered Clouds,270,2013-07-04 21:35:00
2:55 PM,78.8,46.4,32,30.09,10.0,WSW,12.7,-,N/A,Thunderstorm,Clear,250,2013-07-04 21:55:00
3:15 PM,78.8,50.0,36,30.09,10.0,SW,5.8,-,N/A,Thunderstorm,Partly Cloudy,230,2013-07-04 22:15:00
3:35 PM,80.6,46.4,30,30.09,10.0,SE,5.8,-,N/A,Thunderstorm,Clear,140,2013-07-04 22:35:00
3:55 PM,82.4,48.2,30,30.08,10.0,SSW,5.8,-,N/A,,Clear,210,2013-07-04 22:55:00
4:15 PM,84.2,44.6,25,30.08,10.0,West,13.8,19.6,N/A,Thunderstorm,Clear,270,2013-07-04 23:15:00
4:35 PM,80.6,48.2,32,30.09,10.0,West,16.1,19.6,N/A,,Clear,260,2013-07-04 23:35:00
4:55 PM,80.6,44.6,28,30.08,10.0,West,12.7,-,N/A,,Scattered Clouds,260,2013-07-04 23:55:00
5:15 PM,78.8,44.6,30,30.07,10.0,WSW,10.4,-,N/A,,Partly Cloudy,240,2013-07-05 00:15:00
5:35 PM,78.8,41.0,26,30.07,10.0,SSW,8.1,-,N/A,,Scattered Clouds,210,2013-07-05 00:35:00
5:55 PM,78.8,41.0,26,30.08,10.0,SW,4.6,-,N/A,Thunderstorm,Mostly Cloudy,220,2013-07-05 00:55:00
6:15 PM,78.8,41.0,26,30.08,10.0,South,5.8,-,N/A,Thunderstorm,Mostly Cloudy,190,2013-07-05 01:15:00
6:35 PM,78.8,41.0,26,30.10,10.0,SE,6.9,-,N/A,Thunderstorm,Overcast,140,2013-07-05 01:35:00
6:55 PM,77.0,46.4,34,30.10,10.0,SSE,8.1,-,N/A,,Scattered Clouds,150,2013-07-05 01:55:00
7:15 PM,75.2,46.4,36,30.11,10.0,SE,6.9,-,N/A,,Clear,140,2013-07-05 02:15:00
7:35 PM,73.4,46.4,38,30.12,10.0,WSW,9.2,-,N/A,,Clear,240,2013-07-05 02:35:00
7:55 PM,73.4,46.4,38,30.12,10.0,SSW,10.4,-,N/A,,Clear,200,2013-07-05 02:55:00
8:15 PM,71.6,46.4,41,30.12,10.0,South,9.2,-,N/A,,Clear,170,2013-07-05 03:15:00
8:35 PM,71.6,46.4,41,30.13,10.0,South,10.4,-,N/A,,Clear,180,2013-07-05 03:35:00
8:55 PM,71.6,46.4,41,30.13,10.0,South,9.2,-,N/A,,Clear,180,2013-07-05 03:55:00
9:15 PM,69.8,48.2,46,30.14,10.0,South,12.7,-,N/A,,Clear,190,2013-07-05 04:15:00
9:35 PM,69.8,46.4,43,30.14,10.0,SSW,15.0,-,N/A,,Clear,200,2013-07-05 04:35:00
9:55 PM,68.0,48.2,49,30.15,10.0,South,13.8,-,N/A,,Clear,190,2013-07-05 04:55:00
10:15 PM,68.0,48.2,49,30.15,10.0,SSW,12.7,-,N/A,,Clear,200,2013-07-05 05:15:00
10:35 PM,68.0,48.2,49,30.15,10.0,South,13.8,-,N/A,,Mostly Cloudy,190,2013-07-05 05:35:00
10:55 PM,66.2,48.2,52,30.15,10.0,South,13.8,-,N/A,,Scattered Clouds,190,2013-07-05 05:55:00
11:15 PM,66.2,48.2,52,30.15,10.0,South,13.8,-,N/A,,Partly Cloudy,190,2013-07-05 06:15:00
11:35 PM,66.2,46.4,49,30.17,10.0,SSW,11.5,-,N/A,,Scattered Clouds,200,2013-07-05 06:35:00
11:55 PM,66.2,48.2,52,30.18,10.0,SSW,11.5,-,N/A,Thunderstorm,Thunderstorm,200,2013-07-05 06:55:00